Tracking 34794 objects as of 19-Jul-2026
HD Live streaming from Space Station
objects crossing your sky now

STARLINK-11361

Track STARLINK-11361 now!
10-day predictions
STARLINK-11361 is classified as:


NORAD ID: 61585
Int'l Code: 2024-187M
Perigee: 366.4 km
Apogee: 367.3 km
Inclination: 53.2 °
Period: 91.7 minutes
Semi major axis: 6737 km
RCS: Unknown
Launch date: October 18, 2024
Source: United States (US)
Launch site: AIR FORCE EASTERN TEST RANGE (AFETR)
Your satellite tracking list
Your tracking list is empty




NASA's NSSDC Master Catalog

Two Line Element Set (TLE):
1 61585U 24187M   26199.75419643  .00070198  00000-0  57924-3 0  9998
2 61585  53.1579  10.2825 0000682  77.5144 282.5950 15.69715886101334
Source of the keplerian elements: AFSPC